Tracking 17996 objects as of 28-February-2017
HD Live streaming from Space Station
objects crossing your sky now

TIANLIAN 1-02

Track TIANLIAN 1-02 now!
TIANLIAN 1-02 is classified as:


NORAD ID: 37737
Int'l Code: 2011-032A
Perigee: 35,755.1 km
Apogee: 35,831.8 km
Inclination: 2.4 °
Period: 1,436.1 minutes
Semi major axis: 42164 km
RCS: 12.5893 m2 (large)
Launch date: July 11, 2011
Source: People's Republic of China (PRC)
Launch site: Xichang Space Center, China (XSC)

TIANLIAN 1-02 is the second Tianlian 1 data relay satellite, joining a similar craft launched in April 2008. The satellites are part of a network to increase the coverage of tracking stations for Chinese space missions across the globe.
Your satellite tracking list
Your tracking list is empty





NASA's NSSDC Master Catalog

Two Line Element Set (TLE):
1 37737U 11032A   17057.78867282 +.00000018 +00000-0 +00000-0 0  9991
2 37737 002.3665 078.0166 0009094 205.2064 334.2192 01.00272685020658
Source of the keplerian elements: AFSPC